Language: 


Des rapports , des résumés tant et plus, au choix de chacun....


Données Historiques de Météogheer
Journalier Rapport pour Aoûut 9, 2017 Unitée:  Métrique    Impériale   Les deux
Suivant Jour »
Journalier Hebdomadaire Mensuel Annuel Sur mesure
  Max: Min: Moyenne:
Température: 23.4 °C 0.0 °C 16.3 °C
Point de rosée: 16.0 °C 10.0 °C 13.2 °C
Humidité: 98% 0% 82%
Vent: 16.9km/h 0.0km/h 4.6km/h
Rafales: 17.7km/h - -
Vent- - SW
Pression: 1018.2 hPa 0.0 hPa -
Pluie: 2.0 mm    
Historical Graphs
 
 
Données tabulaires pour Aoûut 9, 2017
Heure Température Point de rosée Pression Vent Vent Rafales Humidité Pluie Taux (Horaire) Conditions
00:00 15.2 °C 15.0 °C 1011.1 hPa WSW 10.8 km/h 10.8 km/h 97% 0.0 mm
00:05 15.2 °C 15.0 °C 1011.1 hPa SSW 7.9 km/h 10.8 km/h 97% 0.0 mm
00:10 15.2 °C 15.0 °C 1011.1 hPa SSW 4.7 km/h 10.8 km/h 97% 0.0 mm
00:15 15.1 °C 15.0 °C 1011.1 hPa SW 5.5 km/h 9.3 km/h 97% 0.0 mm
00:20 15.1 °C 15.0 °C 1011.1 hPa SW 6.4 km/h 12.6 km/h 97% 0.0 mm
00:25 15.1 °C 15.0 °C 1011.1 hPa SW 5.8 km/h 14.0 km/h 97% 0.0 mm
00:30 15.1 °C 15.0 °C 1011.1 hPa WSW 6.4 km/h 14.0 km/h 97% 0.0 mm
00:35 15.0 °C 15.0 °C 1011.1 hPa West 5.5 km/h 13.0 km/h 97% 0.0 mm
00:40 15.0 °C 15.0 °C 1011.1 hPa SW 9.7 km/h 13.0 km/h 97% 0.0 mm
00:45 14.9 °C 15.0 °C 1011.1 hPa WSW 7.2 km/h 13.0 km/h 98% 0.0 mm
00:50 14.9 °C 15.0 °C 1011.1 hPa West 9.3 km/h 11.9 km/h 98% 0.0 mm
00:55 14.9 °C 15.0 °C 1011.1 hPa West 9.7 km/h 16.3 km/h 98% 0.0 mm
01:00 14.9 °C 15.0 °C 1011.1 hPa WSW 9.0 km/h 16.3 km/h 98% 0.0 mm
01:05 14.8 °C 15.0 °C 1011.1 hPa WSW 8.7 km/h 12.6 km/h 98% 0.0 mm
01:10 14.7 °C 15.0 °C 1010.0 hPa West 6.9 km/h 11.9 km/h 98% 0.0 mm
01:15 14.6 °C 14.0 °C 1010.0 hPa Calm   9.7 km/h 97% 0.0 mm
01:20 14.5 °C 14.0 °C 1010.0 hPa Calm   9.0 km/h 97% 0.0 mm
01:25 14.3 °C 14.0 °C 1011.1 hPa Calm   9.0 km/h 97% 0.0 mm
01:30 14.2 °C 14.0 °C 1011.1 hPa Calm   7.9 km/h 97% 0.0 mm
01:31 14.2 °C 14.0 °C 1011.1 hPa Calm   7.9 km/h 97% 0.0 mm
01:36 14.1 °C 14.0 °C 1011.1 hPa Calm   7.6 km/h 97% 0.0 mm
01:41 14.1 °C 14.0 °C 1011.1 hPa Calm   6.9 km/h 97% 0.0 mm
01:46 14.1 °C 14.0 °C 1011.1 hPa Calm   8.7 km/h 97% 0.0 mm
01:51 14.0 °C 14.0 °C 1011.1 hPa Calm   8.7 km/h 97% 0.0 mm
01:56 14.0 °C 14.0 °C 1011.1 hPa WSW 7.9 km/h 7.9 km/h 98% 0.0 mm
02:02 14.0 °C 14.0 °C 1011.1 hPa WSW 4.0 km/h 9.3 km/h 98% 0.0 mm
02:07 14.0 °C 14.0 °C 1011.1 hPa Calm   9.3 km/h 98% 0.0 mm
02:12 14.0 °C 14.0 °C 1011.1 hPa Calm   10.1 km/h 98% 0.0 mm
02:17 13.9 °C 14.0 °C 1011.1 hPa SSW 4.3 km/h 10.5 km/h 98% 0.0 mm
02:22 14.0 °C 14.0 °C 1011.1 hPa SW 5.8 km/h 10.5 km/h 98% 0.0 mm
02:23 14.0 °C 14.0 °C 1011.1 hPa Calm   10.5 km/h 98% 0.0 mm
02:28 14.0 °C 14.0 °C 1012.1 hPa Calm   9.7 km/h 98% 0.0 mm
02:33 14.0 °C 14.0 °C 1012.1 hPa SW 6.4 km/h 11.1 km/h 98% 0.0 mm
02:36 14.0 °C 14.0 °C 1012.1 hPa SW 9.7 km/h 11.1 km/h 98% 0.0 mm
02:41 14.0 °C 14.0 °C 1012.1 hPa SSW 6.4 km/h 12.6 km/h 98% 0.0 mm
02:46 14.0 °C 14.0 °C 1012.1 hPa SW 7.6 km/h 12.6 km/h 98% 0.0 mm
02:51 14.0 °C 14.0 °C 1012.1 hPa SW 5.0 km/h 10.1 km/h 98% 0.0 mm
02:56 14.0 °C 14.0 °C 1012.1 hPa SSW 6.4 km/h 10.1 km/h 98% 0.0 mm
03:01 14.1 °C 14.0 °C 1012.1 hPa SSW 6.9 km/h 11.6 km/h 98% 0.0 mm
03:06 14.1 °C 14.0 °C 1012.1 hPa Calm   11.6 km/h 98% 0.0 mm
03:11 14.0 °C 14.0 °C 1011.1 hPa Calm   9.7 km/h 98% 0.0 mm
03:16 13.9 °C 14.0 °C 1011.1 hPa WSW 4.0 km/h 9.0 km/h 98% 0.0 mm
03:21 13.9 °C 14.0 °C 1011.1 hPa SSW 6.1 km/h 9.0 km/h 98% 0.0 mm
03:26 14.0 °C 14.0 °C 1012.1 hPa Calm   9.3 km/h 98% 0.0 mm
03:31 14.0 °C 14.0 °C 1012.1 hPa SW 8.7 km/h 12.2 km/h 98% 0.0 mm
03:36 14.0 °C 14.0 °C 1012.1 hPa SSW 10.5 km/h 12.2 km/h 98% 0.0 mm
03:41 14.0 °C 14.0 °C 1012.1 hPa SW 7.9 km/h 14.0 km/h 98% 0.0 mm
03:46 13.8 °C 14.0 °C 1012.1 hPa SW 8.7 km/h 14.0 km/h 98% 0.0 mm
03:51 13.7 °C 14.0 °C 1012.1 hPa SW 9.7 km/h 10.8 km/h 98% 0.0 mm
03:56 13.7 °C 14.0 °C 1012.1 hPa SW 6.9 km/h 12.6 km/h 98% 0.0 mm
04:01 13.6 °C 14.0 °C 1012.1 hPa SW 5.8 km/h 12.6 km/h 98% 0.0 mm
04:06 13.5 °C 14.0 °C 1012.1 hPa SW 12.2 km/h 12.6 km/h 98% 0.0 mm
04:11 13.4 °C 13.0 °C 1012.1 hPa SW 11.9 km/h 12.2 km/h 98% 0.0 mm
04:16 13.3 °C 13.0 °C 1012.1 hPa WSW 1.4 km/h 11.9 km/h 97% 0.0 mm
04:21 13.2 °C 13.0 °C 1012.1 hPa SSW 7.6 km/h 9.3 km/h 97% 0.0 mm
04:26 13.2 °C 13.0 °C 1012.1 hPa SW 9.7 km/h 11.9 km/h 98% 0.0 mm
04:31 13.2 °C 13.0 °C 1012.1 hPa SSE 9.0 km/h 11.9 km/h 98% 0.0 mm
04:36 13.1 °C 13.0 °C 1012.1 hPa SW 4.3 km/h 12.2 km/h 98% 0.0 mm
04:41 12.9 °C 13.0 °C 1012.1 hPa WSW 5.0 km/h 12.2 km/h 98% 0.0 mm
04:46 12.8 °C 13.0 °C 1012.1 hPa Calm   10.5 km/h 98% 0.0 mm
04:51 12.8 °C 13.0 °C 1012.1 hPa SW 4.3 km/h 12.2 km/h 98% 0.0 mm
04:56 12.7 °C 13.0 °C 1012.1 hPa SSW 1.4 km/h 12.2 km/h 98% 0.0 mm
05:01 12.6 °C 13.0 °C 1012.1 hPa SW 6.9 km/h 9.0 km/h 98% 0.0 mm
05:06 12.5 °C 13.0 °C 1012.1 hPa SW 5.5 km/h 9.0 km/h 98% 0.0 mm
05:11 12.5 °C 13.0 °C 1012.1 hPa Calm   9.7 km/h 98% 0.0 mm
05:17 12.4 °C 13.0 °C 1012.1 hPa SSW 6.4 km/h 9.0 km/h 98% 0.0 mm
05:19 12.4 °C 13.0 °C 1012.1 hPa Calm   9.0 km/h 98% 0.0 mm
05:22 12.4 °C 13.0 °C 1012.1 hPa SSW 6.9 km/h 10.5 km/h 98% 0.0 mm
05:25 12.4 °C 13.0 °C 1012.1 hPa SSW 6.1 km/h 10.5 km/h 98% 0.0 mm
05:28 12.4 °C 13.0 °C 1013.1 hPa SSW 3.2 km/h 10.5 km/h 98% 0.0 mm
05:33 12.4 °C 13.0 °C 1013.1 hPa SW 4.7 km/h 10.1 km/h 98% 0.0 mm
05:38 12.3 °C 13.0 °C 1013.1 hPa SSW 7.9 km/h 12.6 km/h 98% 0.0 mm
05:43 12.3 °C 13.0 °C 1013.1 hPa SSW 11.6 km/h 12.6 km/h 98% 0.0 mm
05:48 12.3 °C 13.0 °C 1013.1 hPa SSW 4.7 km/h 11.6 km/h 98% 0.0 mm
05:53 12.2 °C 12.0 °C 1013.1 hPa SW 9.0 km/h 13.0 km/h 98% 0.0 mm
05:58 12.2 °C 12.0 °C 1012.1 hPa SSW 8.7 km/h 13.0 km/h 98% 0.0 mm
06:03 12.2 °C 12.0 °C 1012.1 hPa WSW 6.1 km/h 12.2 km/h 98% 0.0 mm
06:08 12.2 °C 12.0 °C 1012.1 hPa SW 1.4 km/h 10.1 km/h 98% 0.0 mm
06:13 12.2 °C 12.0 °C 1013.1 hPa WSW 5.5 km/h 9.7 km/h 98% 0.0 mm
06:18 12.2 °C 12.0 °C 1013.1 hPa SW 8.7 km/h 9.7 km/h 98% 0.0 mm
06:23 12.2 °C 12.0 °C 1013.1 hPa WSW 5.5 km/h 9.3 km/h 98% 0.0 mm
06:28 12.3 °C 13.0 °C 1013.1 hPa Calm   9.3 km/h 98% 0.0 mm
06:33 12.3 °C 13.0 °C 1013.1 hPa Calm   7.9 km/h 98% 0.0 mm
06:38 12.3 °C 13.0 °C 1013.1 hPa Calm   6.1 km/h 98% 0.0 mm
06:43 12.3 °C 13.0 °C 1013.1 hPa Calm   6.4 km/h 98% 0.0 mm
06:48 12.3 °C 13.0 °C 1013.1 hPa SW 6.4 km/h 6.9 km/h 98% 0.0 mm
06:54 12.3 °C 13.0 °C 1013.1 hPa SSW 1.4 km/h 8.7 km/h 98% 0.0 mm
06:59 12.2 °C 12.0 °C 1013.1 hPa Calm   8.7 km/h 98% 0.0 mm
07:04 12.1 °C 12.0 °C 1013.1 hPa SSW 2.1 km/h 8.7 km/h 98% 0.0 mm
07:09 12.1 °C 12.0 °C 1013.1 hPa SSW 4.0 km/h 4.0 km/h 98% 0.0 mm
07:14 12.2 °C 12.0 °C 1013.1 hPa Calm   4.0 km/h 98% 0.0 mm
07:19 12.3 °C 13.0 °C 1013.1 hPa Calm     98% 0.0 mm
07:24 12.5 °C 13.0 °C 1013.1 hPa Calm     98% 0.0 mm
07:29 12.7 °C 13.0 °C 1012.1 hPa Calm     98% 0.0 mm
07:34 12.9 °C 13.0 °C 1012.1 hPa Calm     98% 0.0 mm
07:39 13.1 °C 13.0 °C 1012.1 hPa Calm   5.5 km/h 98% 0.0 mm
07:44 13.2 °C 13.0 °C 1012.1 hPa Calm   7.9 km/h 98% 0.0 mm
07:49 13.4 °C 13.0 °C 1012.1 hPa Calm   7.9 km/h 98% 0.0 mm
07:54 13.5 °C 14.0 °C 1012.1 hPa Calm   7.9 km/h 98% 0.0 mm
07:59 13.6 °C 14.0 °C 1014.1 hPa SW 6.1 km/h 9.0 km/h 98% 0.0 mm
08:04 13.8 °C 13.0 °C 1014.1 hPa SSW 6.9 km/h 9.0 km/h 97% 0.0 mm
08:09 14.0 °C 14.0 °C 1014.1 hPa South 7.9 km/h 9.0 km/h 97% 0.0 mm
08:14 14.1 °C 14.0 °C 1013.1 hPa SSW 4.0 km/h 9.3 km/h 97% 0.0 mm
08:20 14.3 °C 14.0 °C 1013.1 hPa Calm   10.1 km/h 97% 0.0 mm
08:25 14.5 °C 14.0 °C 1013.1 hPa SW 5.5 km/h 10.1 km/h 96% 0.0 mm
08:27 14.7 °C 14.0 °C 1012.1 hPa SSW 5.8 km/h 9.0 km/h 96% 0.0 mm
08:32 14.8 °C 14.0 °C 1012.1 hPa South 9.0 km/h 12.2 km/h 95% 0.0 mm
08:37 14.8 °C 14.0 °C 1012.1 hPa SSW 6.4 km/h 13.0 km/h 94% 0.0 mm
08:42 15.0 °C 14.0 °C 1013.1 hPa SSW 6.1 km/h 13.0 km/h 94% 0.0 mm
08:47 15.3 °C 14.0 °C 1013.1 hPa WSW 6.4 km/h 12.2 km/h 94% 0.0 mm
08:52 15.4 °C 14.0 °C 1013.1 hPa SW 5.5 km/h 12.2 km/h 94% 0.0 mm
08:57 15.7 °C 15.0 °C 1013.1 hPa SW 5.8 km/h 10.5 km/h 93% 0.0 mm
09:02 15.9 °C 15.0 °C 1013.1 hPa WSW 6.4 km/h 9.7 km/h 93% 0.0 mm
09:07 16.2 °C 15.0 °C 1013.1 hPa SW 5.5 km/h 7.9 km/h 93% 0.0 mm
09:13 16.5 °C 15.0 °C 1013.1 hPa SSW 6.9 km/h 9.3 km/h 91% 0.0 mm
09:18 16.6 °C 15.0 °C 1013.1 hPa SW 6.9 km/h 10.5 km/h 91% 0.0 mm
09:23 16.7 °C 15.0 °C 1013.1 hPa WSW 1.8 km/h 12.6 km/h 89% 0.0 mm
09:28 16.8 °C 15.0 °C 1013.1 hPa WSW 8.7 km/h 14.8 km/h 88% 0.0 mm
09:33 17.1 °C 15.0 °C 1013.1 hPa WSW 8.7 km/h 14.8 km/h 87% 0.0 mm
09:38 17.2 °C 15.0 °C 1013.1 hPa South 6.9 km/h 10.5 km/h 86% 0.0 mm
09:43 17.5 °C 15.0 °C 1013.1 hPa WSW 4.0 km/h 10.5 km/h 86% 0.0 mm
09:48 17.8 °C 15.0 °C 1013.1 hPa SSW 7.9 km/h 12.2 km/h 85% 0.0 mm
09:53 17.9 °C 15.0 °C 1013.1 hPa SW 4.7 km/h 12.2 km/h 83% 0.0 mm
09:58 18.4 °C 15.0 °C 1013.1 hPa SSW 6.9 km/h 9.7 km/h 82% 0.0 mm
10:03 18.7 °C 16.0 °C 1013.1 hPa SSW 11.9 km/h 13.0 km/h 82% 0.0 mm
10:08 18.7 °C 15.0 °C 1013.1 hPa SSW 7.9 km/h 15.8 km/h 78% 0.0 mm
10:13 18.9 °C 15.0 °C 1014.1 hPa SSW 1.4 km/h 15.8 km/h 79% 0.0 mm
10:18 19.0 °C 15.0 °C 1014.1 hPa SSW 5.8 km/h 14.0 km/h 77% 0.0 mm
10:23 19.3 °C 15.0 °C 1014.1 hPa Calm   16.3 km/h 76% 0.0 mm
10:33 19.7 °C 15.0 °C 1013.1 hPa SSW 9.7 km/h 11.9 km/h 75% 0.0 mm
10:38 19.9 °C 15.0 °C 1013.1 hPa SW 10.1 km/h 11.9 km/h 74% 0.0 mm
10:43 20.0 °C 15.0 °C 1013.1 hPa SSW 2.6 km/h 12.6 km/h 71% 0.0 mm
10:49 20.2 °C 15.0 °C 1013.1 hPa WSW 5.0 km/h 12.6 km/h 72% 0.0 mm
10:54 19.7 °C 14.0 °C 1013.1 hPa WSW 8.7 km/h 12.2 km/h 70% 0.0 mm
10:59 19.9 °C 14.0 °C 1013.1 hPa SSW 10.5 km/h 12.2 km/h 70% 0.0 mm
11:04 20.0 °C 14.0 °C 1013.1 hPa SSW 5.5 km/h 10.5 km/h 70% 0.0 mm
11:09 20.3 °C 14.0 °C 1013.1 hPa WSW 9.7 km/h 10.1 km/h 67% 0.0 mm
11:14 20.9 °C 15.0 °C 1013.1 hPa Calm   15.8 km/h 68% 0.0 mm
11:19 21.5 °C 16.0 °C 1013.1 hPa SW 10.1 km/h 15.8 km/h 69% 0.0 mm
11:24 21.3 °C 15.0 °C 1013.1 hPa SSW 8.7 km/h 13.0 km/h 65% 0.0 mm
11:29 21.2 °C 14.0 °C 1014.1 hPa WSW 7.6 km/h 13.7 km/h 62% 0.0 mm
11:34 21.1 °C 14.0 °C 1014.1 hPa SSE 9.7 km/h 13.7 km/h 63% 0.0 mm
11:39 21.0 °C 14.0 °C 1014.1 hPa SSE 2.6 km/h 13.7 km/h 64% 0.0 mm
11:44 21.3 °C 14.0 °C 1014.1 hPa SSE 9.7 km/h 16.3 km/h 62% 0.0 mm
11:49 21.9 °C 14.0 °C 1014.1 hPa SW 6.4 km/h 16.3 km/h 61% 0.0 mm
15:47 0.0 °C 15.0 °C 1014.1 hPa Calm     0% 0.0 mm
15:52 20.9 °C 10.0 °C 1014.1 hPa SSW 7.9 km/h 16.3 km/h 48% 0.0 mm
15:57 20.7 °C 11.0 °C 1014.1 hPa SSW 7.9 km/h 16.3 km/h 52% 0.0 mm
16:02 20.6 °C 11.0 °C 1014.1 hPa South 13.7 km/h 13.7 km/h 52% 0.0 mm
16:07 20.6 °C 10.0 °C 1014.1 hPa South 10.1 km/h 15.8 km/h 51% 0.0 mm
16:11 20.7 °C 10.0 °C 1015.1 hPa South 9.3 km/h 15.8 km/h 51% 0.0 mm
16:16 20.6 °C 11.0 °C 1015.1 hPa SW 12.2 km/h 15.4 km/h 52% 0.0 mm
16:18 20.5 °C 10.0 °C 1015.1 hPa WSW 6.4 km/h 15.4 km/h 51% 0.0 mm
16:23 20.5 °C 11.0 °C 1015.1 hPa SSW 9.0 km/h 13.0 km/h 53% 0.0 mm
16:28 20.2 °C 11.0 °C 1015.1 hPa West 16.9 km/h 16.9 km/h 55% 0.0 mm
16:33 20.1 °C 11.0 °C 1015.1 hPa West 6.1 km/h 16.9 km/h 55% 0.0 mm
16:38 20.0 °C 11.0 °C 1015.1 hPa West 10.5 km/h 16.9 km/h 55% 0.0 mm
16:43 19.9 °C 11.0 °C 1015.1 hPa ESE 2.6 km/h 10.5 km/h 56% 0.0 mm
16:45 19.8 °C 11.0 °C 1015.1 hPa West 9.0 km/h 10.5 km/h 56% 0.0 mm
16:51 19.5 °C 11.0 °C 1015.1 hPa West 6.1 km/h 10.1 km/h 57% 0.0 mm
16:56 19.3 °C 11.0 °C 1015.1 hPa WNW 5.0 km/h 10.1 km/h 59% 0.0 mm
17:01 19.6 °C 12.0 °C 1015.1 hPa West 4.7 km/h 9.7 km/h 60% 0.0 mm
17:06 21.1 °C 13.0 °C 1015.1 hPa NNW 1.8 km/h 9.7 km/h 59% 0.0 mm
17:11 21.8 °C 13.0 °C 1015.1 hPa North 5.8 km/h 6.9 km/h 57% 0.0 mm
17:16 22.1 °C 12.0 °C 1015.1 hPa West 6.1 km/h 9.3 km/h 52% 0.0 mm
17:21 22.0 °C 12.0 °C 1015.1 hPa West 5.0 km/h 9.3 km/h 52% 0.0 mm
17:26 22.6 °C 12.0 °C 1015.1 hPa West 4.7 km/h 7.6 km/h 50% 0.0 mm
17:31 22.2 °C 12.0 °C 1015.1 hPa Calm   6.9 km/h 50% 0.0 mm
17:36 21.9 °C 12.0 °C 1015.1 hPa Calm   6.9 km/h 51% 0.0 mm
17:41 23.0 °C 13.0 °C 1015.1 hPa West 9.3 km/h 9.3 km/h 51% 0.0 mm
17:46 23.2 °C 12.0 °C 1015.1 hPa West 4.3 km/h 15.8 km/h 48% 0.0 mm
17:51 23.0 °C 12.0 °C 1015.1 hPa West 12.2 km/h 15.8 km/h 50% 0.0 mm
17:56 23.0 °C 12.0 °C 1016.1 hPa West 8.7 km/h 15.8 km/h 49% 0.0 mm
18:01 23.1 °C 12.0 °C 1016.1 hPa WSW 6.4 km/h 17.7 km/h 48% 0.0 mm
18:06 23.1 °C 11.0 °C 1016.1 hPa NW 13.0 km/h 17.7 km/h 47% 0.0 mm
18:11 23.0 °C 11.0 °C 1015.1 hPa WNW 6.9 km/h 16.6 km/h 46% 0.0 mm
18:16 23.2 °C 12.0 °C 1015.1 hPa West 9.3 km/h 13.0 km/h 47% 0.0 mm
18:21 23.1 °C 11.0 °C 1015.1 hPa WSW 5.0 km/h 11.1 km/h 46% 0.0 mm
18:27 23.4 °C 11.0 °C 1015.1 hPa West 2.6 km/h 11.1 km/h 46% 0.0 mm
18:32 23.1 °C 11.0 °C 1015.1 hPa West 11.9 km/h 11.9 km/h 45% 0.0 mm
18:37 22.9 °C 11.0 °C 1015.1 hPa NW 7.9 km/h 11.9 km/h 45% 0.0 mm
18:42 22.8 °C 10.0 °C 1014.1 hPa North 4.3 km/h 11.9 km/h 45% 0.0 mm
18:47 22.8 °C 10.0 °C 1014.1 hPa Calm   10.5 km/h 45% 0.0 mm
18:52 22.6 °C 11.0 °C 1014.1 hPa SW 5.5 km/h 10.5 km/h 46% 0.0 mm
18:57 22.7 °C 11.0 °C 1015.1 hPa West 6.1 km/h 10.5 km/h 47% 0.0 mm
19:02 22.7 °C 11.0 °C 1015.1 hPa WNW 5.8 km/h 10.5 km/h 48% 0.0 mm
19:07 22.7 °C 11.0 °C 1015.1 hPa Calm   9.0 km/h 48% 0.0 mm
19:12 22.9 °C 12.0 °C 1015.1 hPa NW 4.0 km/h 6.9 km/h 49% 0.0 mm
19:17 22.5 °C 11.0 °C 1015.1 hPa NW 6.4 km/h 6.9 km/h 48% 0.0 mm
19:22 22.5 °C 12.0 °C 1015.1 hPa NW 3.5 km/h 7.9 km/h 49% 0.0 mm
19:25 22.6 °C 12.0 °C 1015.1 hPa Calm   7.9 km/h 49% 0.0 mm
19:30 22.6 °C 12.0 °C 1015.1 hPa North 4.3 km/h 7.6 km/h 50% 0.0 mm
19:35 21.6 °C 11.0 °C 1015.1 hPa North 2.6 km/h 9.3 km/h 51% 0.0 mm
19:40 21.1 °C 11.0 °C 1015.1 hPa North 11.1 km/h 11.1 km/h 52% 0.0 mm
19:45 20.4 °C 11.0 °C 1016.1 hPa North 7.6 km/h 11.1 km/h 54% 0.0 mm
19:50 20.0 °C 11.0 °C 1016.1 hPa North 4.3 km/h 9.3 km/h 54% 0.0 mm
19:55 19.7 °C 10.0 °C 1016.1 hPa NNW 6.4 km/h 9.3 km/h 54% 0.0 mm
20:00 19.5 °C 10.0 °C 1016.1 hPa North 1.4 km/h 9.0 km/h 54% 0.0 mm
20:05 19.3 °C 10.0 °C 1016.1 hPa NW 4.0 km/h 7.9 km/h 56% 0.0 mm
20:10 19.1 °C 10.0 °C 1016.1 hPa North 1.4 km/h 8.7 km/h 57% 0.0 mm
20:15 18.9 °C 11.0 °C 1015.1 hPa North 7.6 km/h 8.7 km/h 60% 0.0 mm
20:20 18.6 °C 12.0 °C 1015.1 hPa Calm   9.3 km/h 64% 0.0 mm
20:25 18.0 °C 12.0 °C 1015.1 hPa ENE 6.1 km/h 9.3 km/h 68% 0.3 mm
20:30 17.5 °C 13.0 °C 1016.1 hPa NNW 5.0 km/h 7.2 km/h 72% 0.5 mm
20:35 17.1 °C 12.0 °C 1016.1 hPa NE 6.1 km/h 7.2 km/h 72% 1.0 mm
20:40 16.5 °C 13.0 °C 1016.1 hPa Calm   6.1 km/h 77% 1.5 mm
20:45 16.3 °C 13.0 °C 1016.1 hPa Calm   6.1 km/h 77% 1.5 mm
20:50 16.1 °C 13.0 °C 1016.1 hPa Calm   4.7 km/h 79% 1.8 mm
20:55 15.9 °C 13.0 °C 1016.8 hPa Calm   4.7 km/h 80% 1.8 mm
21:00 15.8 °C 13.0 °C 1016.8 hPa Calm     80% 1.8 mm
21:05 15.7 °C 13.0 °C 1016.8 hPa Calm     81% 1.8 mm
21:11 15.6 °C 13.0 °C 1016.8 hPa Calm     82% 1.8 mm
21:16 15.5 °C 13.0 °C 1016.8 hPa Calm     83% 2.0 mm
21:21 15.4 °C 13.0 °C 1016.8 hPa Calm     84% 2.0 mm
21:26 15.3 °C 13.0 °C 1016.1 hPa Calm     84% 1.5 mm
21:31 15.2 °C 13.0 °C 1016.1 hPa Calm     85% 1.3 mm
21:36 15.1 °C 13.0 °C 1016.1 hPa Calm     86% 0.8 mm
21:52 0.0 °C 13.0 °C 0.0 hPa NNE 1.4 km/h 1.4 km/h 0% 0.5 mm
21:57 14.9 °C 14.0 °C 1016.8 hPa Calm   2.1 km/h 91% 0.3 mm
22:02 14.8 °C 13.0 °C 1016.8 hPa Calm   4.0 km/h 91% 0.3 mm
22:07 14.9 °C 14.0 °C 1016.8 hPa Calm   4.0 km/h 91% 0.3 mm
22:12 14.8 °C 13.0 °C 1016.8 hPa Calm   2.1 km/h 91% 0.0 mm
22:17 14.9 °C 14.0 °C 1016.8 hPa Calm     92% 0.0 mm
22:22 14.8 °C 13.0 °C 1016.8 hPa Calm   1.4 km/h 92% 0.0 mm
22:27 14.7 °C 13.0 °C 1018.2 hPa NNW 2.6 km/h 4.7 km/h 92% 0.0 mm
22:32 14.7 °C 14.0 °C 1018.2 hPa NNW 4.0 km/h 6.9 km/h 93% 0.0 mm
22:37 14.7 °C 14.0 °C 1018.2 hPa North 3.5 km/h 7.6 km/h 93% 0.0 mm
22:42 14.6 °C 14.0 °C 1016.8 hPa Calm   7.6 km/h 93% 0.0 mm
22:47 14.6 °C 14.0 °C 1016.8 hPa NE 5.0 km/h 5.0 km/h 93% 0.0 mm
22:52 14.6 °C 14.0 °C 1016.8 hPa Calm   5.5 km/h 93% 0.0 mm
22:57 14.5 °C 14.0 °C 1016.8 hPa Calm   5.5 km/h 93% 0.0 mm
23:02 14.4 °C 13.0 °C 1016.8 hPa NE 6.4 km/h 9.0 km/h 94% 0.0 mm
23:07 14.4 °C 13.0 °C 1016.8 hPa Calm   9.0 km/h 94% 0.0 mm
23:12 14.4 °C 13.0 °C 1016.1 hPa Calm   6.4 km/h 94% 0.0 mm
23:17 14.3 °C 13.0 °C 1016.1 hPa Calm   5.5 km/h 94% 0.0 mm
23:22 14.3 °C 13.0 °C 1016.1 hPa North 3.2 km/h 5.0 km/h 94% 0.0 mm
23:27 14.2 °C 13.0 °C 1016.8 hPa NNE 3.2 km/h 5.0 km/h 94% 0.0 mm
23:32 14.1 °C 13.0 °C 1016.8 hPa Calm   4.7 km/h 94% 0.0 mm
23:37 14.0 °C 13.0 °C 1016.8 hPa Calm   4.0 km/h 94% 0.0 mm
23:43 13.9 °C 13.0 °C 1016.8 hPa Calm   4.0 km/h 94% 0.0 mm
23:48 13.8 °C 13.0 °C 1016.8 hPa Calm   4.0 km/h 94% 0.0 mm
23:53 13.7 °C 13.0 °C 1016.8 hPa Calm   3.5 km/h 94% 0.0 mm
23:58 13.7 °C 13.0 °C 1016.8 hPa Calm   3.5 km/h 94% 0.0 mm
Données Historique de Météo Turbie

Mise a jour : 19/06/2018 08:36:11
Généré par Cumulus 1.9.4 (1099)